Lancaster, CA

8:07 PM PDT on October 23, 2017 (GMT -0700)
Gen Fox

Weather History for KWJF - March, 2011

Change the Weather History Date:

Tuesday, March 1, 2011

  Actual Average Record
Temperature  
Mean Temperature 44 °F 51 °F  
Max Temperature 60 °F 64 °F 84 °F (2016)
Min Temperature 27 °F 37 °F 22 °F (1997)
Degree Days  
Heating Degree Days 21    
Month to date heating degree days 21  
Since 1 July heating degree days 2394  
Cooling Degree Days 0    
Month to date cooling degree days 0  
Year to date cooling degree days 0  
Moisture  
Dew Point 31 °F    
Average Humidity 65    
Maximum Humidity 92    
Minimum Humidity 37    
Precipitation  
Precipitation 0.00 in 0.05 in 2.93 in (1983)
Month to date precipitation 0.00 0.05  
Year to date precipitation 1.36 3.33  
Since 1 July precipitation 7.60  
Snow  
Snow 0.00 in - 0.00 in ()
Month to date snowfall 0.0  
Since 1 July snowfall 0.0  
Snow Depth 0.00 in    
Sea Level Pressure  
Sea Level Pressure 30.17 in    
Wind  
Wind Speed 3 mph (West)    
Max Wind Speed 16 mph    
Max Gust Speed 18 mph    
Visibility 10 miles    
Events      
T = Trace of Precipitation, MM = Missing Value Source: NWS Daily Summary

Daily Weather History Graph

Daily Weather History Graph

Search for Another Location

Airport or City:

Trip Planner

Search our weather history database for the weather conditions in past years. The results will help you decide how hot, cold, wet, or windy it might be!

Date:

Astronomy

Mar. 01, 2011 Rise Set
Actual Time 6:22 AM PST 5:48 PM PST
Civil Twilight 5:57 AM PST 6:13 PM PST
Nautical Twilight 5:27 AM PST 6:43 PM PST
Astronomical Twilight 4:58 AM PST 7:12 PM PST
Moon 4:26 AM PST (3/1) 3:14 PM PST (3/1)
Length of Visible Light 12h 16m
Length of Day
11h 26m
Waning Crescent, 8% of the Moon is Illuminated
Mar 1
Waning Crescent
Mar 4
New
Mar 12
First Quarter
Mar 19
Full
Mar 26
Last Quarter

Hourly Weather History & Observations

Time (PST) Temp. Windchill Dew Point Humidity Pressure Visibility Wind Dir Wind Speed Gust Speed Precip Events Conditions
12:56 AM 34.0 °F - 28.9 °F 82% 30.20 in 10.0 mi Calm Calm - N/A   Clear
1:56 AM 30.0 °F - 27.0 °F 88% 30.19 in 10.0 mi Calm Calm - N/A   Clear
2:56 AM 30.9 °F 27.5 °F 27.0 °F 85% 30.18 in 10.0 mi West 3.5 mph - N/A   Clear
3:56 AM 30.9 °F 27.5 °F 26.1 °F 82% 30.17 in 10.0 mi West 3.5 mph - N/A   Clear
4:56 AM 30.9 °F - 26.1 °F 82% 30.18 in 10.0 mi Calm Calm - N/A   Clear
5:56 AM 28.9 °F - 24.1 °F 82% 30.19 in 10.0 mi Calm Calm - N/A   Clear
6:56 AM 27.0 °F - 24.1 °F 89% 30.22 in 10.0 mi Calm Calm - N/A   Clear
7:56 AM 34.0 °F - 30.0 °F 85% 30.24 in 10.0 mi Calm Calm - N/A   Clear
8:56 AM 37.9 °F 35.5 °F 32.0 °F 79% 30.25 in 10.0 mi South 3.5 mph - N/A   Clear
9:56 AM 44.1 °F - 33.1 °F 65% 30.23 in 10.0 mi Calm Calm - N/A   Clear
10:56 AM 48.9 °F - 35.1 °F 59% 30.21 in 10.0 mi East 5.8 mph - N/A   Clear
11:56 AM 51.1 °F - 36.0 °F 56% 30.19 in 10.0 mi North 3.5 mph - N/A   Clear
12:56 PM 54.0 °F - 33.1 °F 45% 30.16 in 10.0 mi Calm Calm - N/A   Clear
1:56 PM 57.9 °F - 34.0 °F 41% 30.14 in 10.0 mi East 4.6 mph - N/A   Clear
2:56 PM 57.0 °F - 33.1 °F 40% 30.13 in 10.0 mi Calm Calm - N/A   Clear
3:56 PM 59.0 °F - 34.0 °F 39% 30.12 in 10.0 mi Calm Calm - N/A   Clear
4:56 PM 57.9 °F - 33.1 °F 39% 30.11 in 10.0 mi SW 3.5 mph - N/A   Clear
5:56 PM 55.0 °F - 35.1 °F 47% 30.12 in 10.0 mi West 5.8 mph - N/A   Clear
6:56 PM 51.1 °F - 36.0 °F 56% 30.14 in 10.0 mi West 4.6 mph - N/A   Clear
7:56 PM 48.9 °F - 37.0 °F 64% 30.14 in 10.0 mi WNW 3.5 mph - N/A   Clear
8:56 PM 52.0 °F - 34.0 °F 50% 30.14 in 10.0 mi WSW 13.8 mph - N/A   Clear
9:56 PM 48.9 °F - 34.0 °F 56% 30.13 in 10.0 mi WNW 8.1 mph - N/A   Mostly Cloudy
10:56 PM 48.0 °F - 32.0 °F 54% 30.12 in 10.0 mi WNW 4.6 mph - N/A   Clear
11:56 PM 48.9 °F - 28.9 °F 46% 30.11 in 10.0 mi West 11.5 mph - N/A   Partly Cloudy